Location: Kermapucano
(48.0667°N, 3.3000°W)
Time: 20:37:59
(UTC+00:00)

Meteor 2-6 Rocket - Pass Details

Date: 29 November 2020
Orbit: 806 x 914 km, 81.3° (Epoch: 27 January)

Event Time Altitude Azimuth Distance (km) Brightness Sun altitude
Exits shadow 06:12:36 - 343° (NNW) 3,271 6.9 -14.1°
Reaches altitude 10° 06:14:53 10° 339° (NNW) 2,399 6.2 -13.7°
Maximum altitude 06:20:04 50° 266° (W) 1,033 4.3 -12.9°
Drops below altitude 10° 06:25:16 10° 192° (SSW) 2,408 6.7 -12.1°
Sets 06:27:44 0° 187° (S) 3,349 7.5 -11.7°
